Wind_Gust
7 7 7 7 8 6 6 7 7 9 10 10 10 10 11 12 13 12 11 11 11 10 9 9 9 8 7 6 6 5 7 8 7 7 7 7 7 7 7 9 8 6 9 8 7 6 7 8 7 7 6 8 8 8 9 8 12 12 11 12 11 11 15 11 12 8 4 3 6 8 7 9 6 7 7 6 8 8 7 7 9 9 7 6 6
7 6 5 7 7 6 5 6 9 9 10 10 10 10 10 11 12 11 10 11 11 10 10 9 8 9 9 7 6 6 6 6 7 9 7 6 5 7 9 9 7 8 9 8 8 9 7 7 5 6 5 6 5 6 6 7 10 12 12 12 11 8 7 12 7 7 6 3 3 2 6 7 9 5 10 9 7 5 6 7 7 8 7 6 6
6 6 5 7 7 6 6 6 9 9 10 9 9 10 10 10 11 11 10 10 10 9 10 10 10 10 9 9 8 7 7 6 7 8 6 5 6 6 8 8 8 8 8 8 9 9 7 6 3 3 4 6 6 9 11 7 6 10 8 10 11 8 5 10 10 6 9 6 5 4 3 5 11 12 10 10 8 7 10 9 9 8 5 6 6
11 14 15 8 7 6 5 6 9 9 10 9 10 9 10 8 9 10 8 11 11 7 9 10 9 9 9 10 10 8 7 7 9 10 9 6 6 7 6 7 6 4 6 7 8 8 9 6 5 3 3 4 6 8 10 10 9 7 7 6 9 8 7 6 10 10 7 9 3 6 5 6 6 4 4 2 4 4 5 6 8 9 8 10 8
8 11 19 24 19 23 15 17 11 11 10 10 10 10 10 10 9 11 8 10 8 7 10 10 8 9 11 11 10 9 9 8 9 9 7 7 8 8 7 5 4 5 7 7 7 9 8 8 6 4 5 6 9 8 9 9 8 9 9 7 7 8 10 8 3 5 9 8 8 5 4 4 3 5 7 7 7 11 9 8 5 6 6 5 8
12 10 12 12 18 24 23 26 21 20 10 10 12 12 11 9 7 5 5 10 7 6 11 8 9 9 9 10 10 10 10 9 8 9 8 7 7 8 8 6 4 5 6 6 6 5 7 6 7 7 7 8 6 7 8 7 8 8 8 8 6 7 8 6 8 7 8 8 6 4 1 7 3 3 4 8 13 9 9 8 8 9 9 9 9
12 10 12 7 12 13 16 15 13 24 20 9 4 6 6 6 9 7 6 9 8 7 10 10 7 8 9 8 9 11 11 10 10 9 9 8 8 7 7 7 5 5 4 6 4 6 6 7 7 6 8 8 8 8 9 7 9 6 5 6 4 8 8 7 8 7 4 5 3 3 4 1 5 5 6 10 11 9 8 4 7 6 6 6 8
15 12 9 9 11 12 9 11 14 10 5 9 8 5 3 6 3 9 5 8 7 6 9 9 6 6 7 10 8 7 7 6 7 7 5 7 8 5 9 12 12 7 7 9 10 8 7 6 5 5 5 8 9 8 10 10 7 6 3 5 6 7 6 5 7 6 5 4 3 5 4 5 5 4 6 7 8 8 5 5 6 5 9 9 5
7 7 6 8 9 10 8 8 8 9 4 4 9 6 2 3 4 8 8 5 8 7 6 5 4 3 4 7 9 6 10 9 8 7 6 6 5 11 12 10 6 5 4 5 3 2 4 4 4 5 6 6 9 8 8 8 11 9 3 6 5 5 3 5 5 9 9 9 8 4 7 8 3 5 7 8 9 9 3 6 6 4 6 7 9
6 8 10 8 5 9 11 11 10 7 6 7 6 9 3 1 3 6 7 7 7 7 7 6 8 8 10 7 5 6 7 5 8 11 9 7 5 10 9 6 6 6 6 4 2 2 3 2 2 7 7 7 11 13 13 13 10 9 9 7 6 5 4 5 7 6 9 9 8 5 9 7 5 4 8 4 4 4 10 9 6 6 5 5 6
12 13 10 9 7 8 7 5 10 10 7 7 12 11 6 4 4 5 5 5 4 5 6 6 6 6 6 6 5 5 6 6 10 11 11 10 9 10 9 7 6 8 6 7 6 5 5 3 3 4 6 6 8 13 14 14 14 13 11 9 6 6 7 8 6 6 5 7 4 9 8 7 5 6 5 4 5 5 3 3 5 8 7 6 11
10 14 15 13 13 14 12 13 14 15 16 16 17 16 9 5 3 3 4 4 4 5 4 5 5 5 6 4 4 5 7 7 12 13 12 11 8 11 11 11 9 9 9 9 8 7 7 5 5 6 6 8 8 11 12 12 13 12 12 11 11 10 7 8 7 7 4 8 7 4 7 7 4 3 2 3 5 8 7 8 8 6 6 6 8
13 18 22 20 17 18 19 19 17 14 14 16 15 16 7 3 3 2 3 2 2 2 4 5 4 3 6 5 5 4 5 6 8 12 13 10 9 9 10 10 11 9 9 9 8 8 7 7 6 7 8 12 12 10 12 11 9 13 14 12 10 10 11 11 7 8 8 10 9 6 3 6 6 5 2 3 3 7 5 9 6 6 5 5 7
18 16 14 10 7 7 13 14 12 16 19 17 13 4 3 4 4 2 2 2 2 1 1 2 4 5 6 6 6 6 6 9 9 8 10 10 9 7 9 9 9 10 10 10 9 9 9 9 9 8 7 8 9 11 11 12 11 10 8 7 8 7 8 8 8 6 6 9 10 7 3 5 8 3 4 3 5 3 5 4 3 4 5 7 8
22 20 20 20 19 16 12 8 8 5 6 8 10 11 7 6 5 3 3 2 3 3 4 5 4 4 5 5 7 9 11 8 8 11 12 12 11 7 8 8 9 9 10 10 10 9 9 10 10 10 9 8 10 11 12 11 10 10 9 7 8 7 7 7 6 6 8 9 10 11 8 7 9 6 4 6 8 6 6 4 4 4 6 6 5
22 20 21 20 19 17 16 16 15 16 13 10 7 7 9 9 8 5 5 4 3 3 5 4 4 3 3 3 4 7 7 4 7 9 11 10 9 7 6 8 9 8 8 6 6 6 5 6 8 9 7 6 9 15 14 13 11 11 11 10 9 8 7 2 2 5 9 10 10 11 9 7 7 7 6 7 5 4 3 2 4 4 5 6 7
20 19 19 19 19 18 18 15 14 13 12 13 12 12 6 5 6 7 8 8 7 7 8 8 7 6 6 6 7 5 7 7 8 8 9 11 7 5 6 7 7 8 7 4 5 4 4 5 6 8 4 5 8 16 16 13 10 10 10 9 8 9 8 3 4 7 10 10 10 10 10 9 8 8 7 8 7 5 6 4 1 2 6 6 7
17 16 16 16 17 17 17 15 15 14 13 11 11 11 11 10 2 4 7 9 9 11 12 11 10 10 10 10 11 8 9 10 12 11 12 12 9 10 9 9 7 8 5 7 7 7 5 3 11 11 9 5 9 18 17 14 12 11 10 11 9 8 6 4 5 5 6 8 7 6 6 6 7 7 8 8 7 5 8 2 4 4 3 2 7
16 15 14 13 14 14 14 13 13 15 14 13 13 13 11 11 10 10 9 4 10 13 12 12 11 10 10 11 12 13 11 11 13 13 13 12 11 7 9 9 8 5 11 9 7 7 5 10 11 11 12 10 12 14 13 10 11 13 12 12 10 9 10 9 8 5 2 2 1 1 1 3 4 4 6 9 6 5 4 5 3 4 3 5 7
11 11 12 12 12 12 11 12 11 11 10 11 13 12 11 13 13 11 10 10 11 6 6 11 13 14 13 12 10 10 11 10 14 15 14 14 13 10 7 8 8 9 13 15 11 7 8 9 10 10 14 13 12 12 11 10 9 8 10 11 11 8 7 8 6 7 4 5 5 5 6 3 3 5 4 3 3 3 1 2 4 8 5 2 3
13 13 14 15 16 16 16 14 16 14 13 12 11 9 10 10 10 10 12 12 11 13 10 7 9 12 13 13 13 9 11 11 12 16 15 15 14 11 9 9 6 12 13 11 13 13 11 9 8 9 13 14 15 16 15 14 12 12 10 9 6 9 10 9 6 8 8 6 4 4 3 1 2 5 6 4 5 6 5 3 3 4 4 2 5
12 14 15 14 15 15 16 17 17 16 16 17 16 15 13 11 10 10 11 11 11 11 11 12 11 8 8 9 12 13 11 14 11 13 16 16 15 14 10 9 5 14 10 11 10 11 13 13 11 10 14 16 16 16 17 16 15 15 12 10 12 14 11 8 8 7 5 2 2 4 4 4 4 7 6 4 4 5 4 3 4 7 5 2 3
11 12 12 12 11 12 12 13 14 14 15 15 14 14 13 13 13 12 11 11 12 14 13 12 10 11 10 10 10 12 11 13 16 15 16 17 16 15 12 8 5 7 15 13 11 11 8 7 8 11 16 17 17 17 16 17 13 13 12 12 12 10 8 6 4 5 3 3 3 2 3 5 7 8 9 7 4 5 7 7 6 7 5 3 2
11 12 13 13 14 15 15 15 15 14 13 13 13 14 14 14 13 12 11 10 11 11 12 12 12 12 14 13 9 7 10 14 14 17 18 19 17 16 15 12 7 7 10 15 14 18 18 14 11 13 16 18 17 16 15 13 14 12 11 10 9 7 5 5 2 3 3 3 1 2 6 5 6 8 4 5 6 3 4 5 6 5 6 6 4
11 11 11 11 13 14 13 14 15 13 14 12 13 14 14 15 16 14 13 13 12 11 11 11 12 13 12 13 6 7 10 14 13 14 14 11 10 10 10 12 15 10 12 10 14 15 15 18 18 18 17 18 18 16 13 13 14 12 11 9 6 5 7 7 6 9 10 6 6 9 7 5 7 3 3 7 7 9 7 8 7 8 6 5 5
11 11 11 11 12 12 13 13 12 12 14 14 14 13 13 13 13 14 14 14 13 12 12 12 12 14 16 15 6 4 9 9 9 8 7 7 5 6 4 8 13 15 12 16 15 19 21 21 20 20 18 17 18 14 12 11 10 10 8 7 7 8 10 11 8 10 7 7 9 8 5 5 5 4 5 7 12 10 6 7 10 10 9 10 12
11 11 12 11 9 10 10 10 11 11 11 13 13 13 14 14 15 15 15 16 17 17 16 14 13 14 16 16 13 11 11 11 9 7 7 9 10 9 8 8 9 13 15 16 17 17 19 18 17 12 11 13 13 11 11 9 10 8 7 7 9 11 9 9 8 9 7 9 7 6 4 5 6 11 11 11 11 9 6 7 9 7 8 7 8
12 11 12 11 11 10 10 10 12 11 13 13 14 15 16 15 14 15 15 16 17 18 18 18 16 14 13 13 12 10 10 14 16 17 13 12 10 12 9 7 4 10 15 14 15 16 15 9 13 13 14 14 12 9 9 8 8 8 8 5 6 6 8 8 9 10 7 6 5 4 7 9 8 5 8 9 6 6 5 8 5 8 6 7 11
11 10 10 9 10 9 11 12 12 13 13 13 12 12 14 16 15 14 12 10 9 12 16 17 16 15 15 14 10 10 10 9 13 10 18 16 19 20 10 11 8 9 12 17 18 14 12 12 11 13 13 12 10 10 9 8 6 5 6 7 7 4 8 10 11 8 6 10 8 6 4 5 3 3 6 6 4 3 3 7 4 6 7 7 7
11 11 10 10 8 10 9 9 9 11 12 13 16 17 10 11 10 11 16 17 20 15 6 11 16 17 16 15 11 12 13 12 7 9 13 17 21 19 14 11 8 15 15 16 18 19 11 11 11 14 14 12 12 10 10 9 8 8 8 8 11 10 11 11 9 6 6 6 5 5 3 2 2 4 7 5 4 5 4 4 5 4 6 5 7
7 9 10 10 10 10 8 9 9 10 11 11 11 13 15 16 12 13 12 14 15 20 23 19 14 13 14 17 17 13 14 9 13 14 15 19 20 21 18 19 20 18 15 15 9 15 13 13 10 7 9 11 12 12 11 10 9 11 11 10 9 11 11 11 8 7 7 6 5 4 2 3 3 4 6 3 2 3 4 4 5 7 7 6 8
7 8 8 8 8 7 8 9 10 11 12 11 12 13 14 16 18 13 14 14 16 19 19 18 16 13 14 16 13 15 12 11 16 14 15 16 17 18 19 24 26 24 24 20 16 13 15 14 12 12 11 11 11 10 10 10 11 10 10 11 8 8 12 8 8 8 6 7 4 1 3 3 7 5 4 4 3 2 3 5 4 4 6 7 8
5 7 6 6 7 8 9 10 11 12 12 14 13 13 13 14 17 20 18 12 14 15 14 13 15 16 14 14 15 12 12 12 19 20 18 16 16 17 19 24 25 22 16 11 14 14 12 15 17 15 14 14 12 12 12 12 12 11 11 11 9 5 8 7 5 9 6 4 2 1 2 3 5 5 5 3 2 2 1 1 1 2 2 4 6
5 3 3 4 6 8 8 9 10 12 12 13 14 13 13 14 15 16 18 18 20 14 9 10 10 12 15 13 13 16 16 13 16 19 20 18 19 20 20 22 24 26 21 19 21 17 12 13 14 16 15 12 11 11 12 11 12 12 9 9 9 7 6 6 11 9 7 5 3 2 3 2 5 3 2 1 1 2 1 1 2 3 5 5 6
2 2 3 4 5 7 8 8 10 12 12 12 13 12 13 13 13 15 16 17 16 17 19 17 10 13 19 14 12 15 15 16 14 16 18 19 21 20 19 20 15 8 9 11 15 17 18 18 17 15 12 12 12 13 14 13 12 11 11 11 11 10 9 10 10 8 6 4 3 3 2 3 7 3 1 1 2 4 4 5 4 3 5 6 6
3 2 4 6 7 7 8 9 10 10 11 14 14 13 11 11 12 14 15 14 13 12 14 12 14 14 18 13 11 13 14 14 14 13 15 18 20 23 20 16 16 21 23 21 18 13 7 7 7 11 14 13 13 12 13 13 12 12 12 13 12 11 11 11 7 7 3 3 4 3 8 11 9 9 8 10 8 7 8 7 5 6 5 6 6
5 6 4 5 6 6 6 7 7 9 8 10 11 11 10 10 11 13 12 12 12 12 13 15 16 19 14 9 7 10 11 10 7 5 8 16 23 23 19 22 23 20 16 15 15 16 15 13 9 14 15 14 13 14 12 12 11 11 9 11 11 12 11 10 8 7 7 7 8 10 10 9 11 11 10 9 8 6 4 4 6 7 7 8 7
2 2 2 4 6 6 5 8 11 9 11 10 9 9 9 9 11 10 11 11 12 12 13 12 8 14 15 14 8 5 7 7 13 12 10 8 6 3 10 10 10 13 11 6 9 15 13 12 13 16 14 15 14 14 14 13 13 13 12 10 10 10 9 10 7 10 8 10 11 10 9 9 8 8 8 8 3 4 6 7 7 8 9 10 7
1 3 3 5 5 7 8 9 11 11 12 10 8 8 8 10 10 10 10 9 10 10 11 12 13 13 15 5 4 5 7 9 9 8 10 8 5 6 10 11 11 11 9 7 10 6 9 13 15 15 15 14 13 13 14 12 12 12 11 9 8 7 11 11 11 9 10 11 10 7 8 7 6 5 6 4 5 4 5 7 7 6 7 9 10
1 1 3 4 5 7 9 8 10 11 9 9 9 9 10 10 9 8 7 8 10 12 12 12 13 11 3 5 3 3 7 8 8 8 8 8 10 10 10 12 13 16 17 10 7 8 13 16 13 15 14 14 14 13 14 14 12 12 14 14 14 13 11 10 10 11 9 9 9 8 7 8 8 3 1 2 3 4 3 5 5 7 7 8 10
2 1 2 5 7 8 8 10 9 10 7 6 8 8 8 9 8 7 8 8 9 10 8 7 7 8 7 3 3 8 8 8 10 10 9 11 10 10 10 12 13 15 11 10 13 11 16 16 16 16 15 14 13 13 12 14 16 16 16 15 14 12 10 9 10 11 10 9 7 6 7 5 5 3 6 4 3 3 4 5 7 8 10 11 11
3 4 8 6 8 9 9 11 11 12 8 6 9 9 9 8 7 5 7 7 7 7 7 6 9 8 6 4 5 5 10 8 10 11 11 12 12 11 9 12 13 12 11 13 13 15 15 16 16 15 15 14 16 16 16 15 15 15 15 14 13 12 11 10 10 10 9 7 5 6 6 5 3 3 3 2 2 6 7 8 8 9 10 11 11
3 6 6 7 8 8 9 11 10 10 10 10 10 8 9 10 10 9 5 6 5 6 8 10 9 9 9 9 14 13 11 10 8 12 12 11 13 14 14 12 12 13 13 15 16 15 17 18 17 16 17 17 15 15 16 14 14 15 14 13 12 12 11 9 10 9 6 6 7 7 6 5 7 4 4 4 4 7 7 8 9 9 10 10 9
5 8 6 7 8 8 9 10 12 12 9 7 10 11 11 11 12 11 9 8 8 8 7 9 9 9 10 12 13 13 12 11 12 13 14 15 16 15 15 16 17 18 18 16 14 16 18 19 18 17 17 16 15 15 15 13 13 13 13 13 12 11 10 9 9 5 4 5 7 7 7 6 7 6 6 7 7 9 10 9 10 10 10 10 9
6 7 8 7 7 8 11 10 10 11 13 11 12 12 12 12 12 12 11 10 10 9 9 9 10 10 12 12 13 13 13 13 13 14 15 16 16 15 15 16 17 17 17 15 13 14 15 16 16 18 17 15 15 16 16 15 14 13 12 13 12 12 9 7 3 3 3 6 6 5 5 6 6 7 8 9 9 8 10 10 10 7 9 9 9
7 9 8 5 6 7 7 8 7 10 11 12 11 12 13 13 13 14 12 11 11 10 10 10 10 10 10 12 13 14 15 16 16 16 17 17 17 17 17 18 19 18 17 15 14 14 13 15 17 16 16 16 16 16 16 16 15 15 14 13 12 9 4 4 3 5 7 7 7 4 4 5 6 7 8 10 10 10 10 11 9 8 8 8 9
7 9 8 5 6 4 8 7 6 8 9 10 10 11 9 11 12 11 12 14 14 12 13 12 11 11 11 13 14 13 14 16 16 17 16 16 16 17 17 17 19 18 16 15 13 15 15 16 16 17 18 17 17 17 15 14 14 13 13 11 10 9 6 4 4 5 7 5 5 5 5 5 7 9 12 12 11 12 11 11 9 10 10 9 8
9 9 8 6 5 8 7 7 8 6 8 10 10 9 9 9 10 11 11 12 13 13 13 14 14 13 14 14 13 13 14 14 15 15 15 16 15 15 16 17 18 16 15 15 13 12 12 14 15 16 17 16 15 15 14 13 12 12 11 11 10 8 6 4 4 6 6 4 4 4 4 4 7 8 10 10 10 11 11 10 10 10 9 9 7
9 10 9 7 6 7 6 7 7 8 7 8 9 9 9 10 9 9 10 11 12 12 13 13 13 14 15 15 14 15 14 14 15 15 15 14 14 15 16 16 14 15 14 13 12 13 14 14 14 15 15 15 15 15 13 12 11 10 10 9 8 6 6 5 4 6 5 5 4 5 4 4 6 8 9 9 11 11 10 9 8 9 10 8 6
10 10 10 9 9 9 7 6 5 7 8 9 10 9 8 8 10 10 10 10 12 12 13 14 14 14 13 14 14 14 14 14 13 13 13 13 13 12 13 13 13 12 12 12 12 13 13 14 15 15 16 15 15 14 13 12 10 8 5 5 5 6 6 5 4 4 4 4 6 6 6 7 7 8 9 10 9 10 9 10 11 9 9 9 7
11 10 10 10 10 8 8 8 5 7 8 8 8 8 9 8 8 8 9 10 11 11 12 13 14 14 14 13 12 14 14 13 12 11 11 11 10 10 11 11 11 10 10 11 12 13 14 14 14 15 14 14 13 13 11 11 8 6 5 4 5 5 5 4 3 3 4 4 5 7 8 8 7 9 10 9 8 6 9 10 11 9 9 9 9
Wind_Speed
3 3 3 4 5 4 4 4 5 5 6 6 6 6 7 7 8 7 7 7 6 6 6 6 5 5 4 4 4 4 5 5 4 4 4 5 5 5 4 5 5 4 5 5 4 4 4 4 4 4 4 5 4 5 6 5 7 7 6 7 7 6 8 6 7 4 1 0 4 4 4 6 3 4 4 3 5 5 5 4 5 5 3 3 3
4 3 4 5 5 4 4 4 5 5 6 6 6 6 6 7 7 7 7 7 6 6 6 6 5 6 5 5 4 4 4 4 5 5 4 4 4 4 4 4 4 4 5 5 5 5 4 4 4 3 3 4 4 4 4 4 6 7 7 6 6 5 4 5 3 4 4 0 1 2 3 4 4 3 5 4 4 3 4 4 3 2 2 3 3
3 2 2 4 4 4 4 4 5 6 6 5 5 5 5 6 7 7 6 6 6 6 6 6 6 6 6 5 5 5 4 4 5 5 4 4 4 4 4 5 5 5 5 5 5 5 5 4 2 2 3 4 4 4 5 4 3 6 5 6 6 3 3 5 4 3 5 3 2 2 1 2 5 7 6 5 2 3 5 4 3 2 2 3 3
7 8 8 3 1 3 3 4 6 6 6 5 5 4 4 5 5 6 5 6 7 4 6 6 6 6 6 6 6 5 5 5 6 6 5 4 4 5 4 4 3 3 4 4 4 5 5 4 2 2 2 3 4 4 5 4 4 4 5 4 5 5 4 4 5 5 3 4 1 3 3 4 2 2 3 1 3 3 2 4 1 3 3 3 2
5 6 5 7 12 12 9 9 7 5 7 5 6 6 5 5 4 4 4 5 5 4 5 6 5 6 6 7 6 6 6 5 6 6 5 4 5 5 5 4 3 4 5 4 5 5 5 5 4 3 2 3 5 4 4 5 4 6 5 4 4 5 5 4 2 2 5 4 3 2 1 1 1 1 2 3 4 6 5 4 3 3 3 3 4
6 3 3 5 9 12 11 10 8 12 5 4 6 5 5 4 4 3 4 5 4 4 6 5 5 6 6 6 6 6 6 6 5 6 5 5 5 5 5 4 3 4 4 4 4 3 4 4 4 5 4 5 4 4 4 5 5 5 5 4 4 4 5 4 4 4 5 5 4 1 0 3 1 1 2 5 6 5 4 3 4 4 5 6 4
6 6 7 3 4 7 7 8 5 4 1 4 1 4 3 3 4 4 4 6 5 4 6 6 5 5 6 5 6 7 7 6 6 6 6 5 5 5 4 3 3 3 3 3 2 3 4 4 4 4 5 5 5 5 5 4 5 4 3 4 3 4 5 4 5 4 3 3 2 2 2 0 2 2 4 5 5 4 4 2 3 3 3 3 4
5 2 1 5 7 6 6 3 6 5 1 2 3 1 2 3 1 2 0 3 4 4 6 6 4 4 5 5 5 5 5 4 4 4 4 4 5 4 5 5 3 3 4 4 3 3 3 3 3 3 3 5 5 5 6 5 4 4 2 3 3 5 4 3 4 4 3 2 1 3 2 2 3 3 2 4 4 4 2 3 3 2 4 3 3
1 1 2 5 6 6 5 4 4 3 1 1 1 2 1 2 3 3 4 2 3 4 3 3 2 0 2 4 4 4 6 5 5 5 4 4 4 7 6 4 4 3 3 3 2 1 2 2 3 3 3 4 8 7 6 6 6 5 2 4 4 3 2 3 3 5 4 5 5 2 4 3 2 4 4 5 5 5 0 2 2 2 4 5 5
4 5 3 2 3 3 2 1 2 1 1 1 1 2 1 1 2 4 4 4 3 4 4 4 5 5 5 3 3 4 4 3 6 9 7 5 4 6 4 4 4 4 4 2 1 1 1 1 2 5 5 6 9 11 11 10 8 6 5 5 4 3 3 3 4 4 5 6 4 3 5 4 3 3 4 1 1 2 5 5 4 3 2 3 3
4 7 4 1 2 4 4 0 1 1 1 1 3 3 3 1 2 3 3 3 3 3 4 4 4 4 4 4 4 3 3 3 10 10 9 9 7 6 5 4 4 5 4 4 4 4 4 2 2 4 5 5 5 11 12 12 12 11 9 7 4 4 4 5 3 3 3 4 3 5 5 4 3 2 3 3 2 3 2 2 3 4 4 3 4
6 5 6 2 2 2 2 3 1 1 1 2 2 4 6 3 2 2 3 3 2 2 2 3 3 3 3 2 2 4 4 7 11 11 9 8 7 6 6 6 5 5 5 6 5 5 5 3 3 3 4 5 5 7 9 11 11 11 10 10 9 9 5 5 4 3 3 5 4 3 4 4 2 1 1 2 3 5 5 5 3 3 3 3 2
5 7 7 7 7 5 3 4 4 2 2 4 6 8 4 2 1 0 1 1 1 1 2 3 3 3 3 3 3 3 3 5 8 11 11 8 8 7 6 6 6 5 5 5 5 5 4 4 4 4 4 10 8 6 7 7 8 11 11 10 8 9 10 10 6 5 5 6 6 3 2 3 4 2 0 2 2 4 2 3 2 2 1 1 3
11 10 7 5 3 3 7 9 9 10 11 10 9 4 2 2 1 1 1 1 0 0 0 2 2 3 3 4 4 4 4 7 6 8 9 9 8 6 5 6 5 6 6 6 5 5 6 6 5 4 4 5 6 7 7 7 7 6 5 5 5 5 7 8 7 6 4 5 6 4 1 3 4 2 0 2 3 2 2 1 0 1 1 3 3
11 10 9 9 8 7 7 4 3 3 3 5 6 4 3 3 3 2 2 1 1 2 3 2 2 3 4 4 4 5 6 7 6 10 10 10 9 7 5 5 5 6 6 6 5 6 6 5 6 6 6 5 5 7 7 7 6 6 5 5 5 4 4 4 3 4 5 5 6 7 5 5 5 4 3 3 5 3 3 2 2 2 2 2 2
11 11 11 10 11 10 10 8 8 7 7 6 4 0 2 5 5 3 3 3 2 2 3 3 3 2 2 1 2 4 5 2 5 8 10 9 8 5 4 5 5 5 5 4 4 4 3 3 5 5 4 4 7 13 10 7 6 7 7 6 5 5 4 1 2 4 6 6 6 6 5 5 6 5 4 4 4 3 1 1 2 2 2 3 3
10 10 10 11 10 10 11 8 7 7 7 8 6 5 4 4 3 0 3 3 3 4 5 4 4 4 4 4 4 4 5 5 6 7 8 9 6 3 3 4 5 5 4 3 3 3 3 4 4 5 3 4 7 13 14 11 6 6 6 5 5 5 5 2 3 7 9 9 9 9 9 8 8 7 6 7 5 4 3 2 0 1 3 3 4
10 10 9 9 10 10 10 9 9 9 8 7 6 6 4 1 1 0 2 3 4 6 6 6 5 4 4 5 6 5 6 7 10 10 10 10 7 5 6 6 5 4 3 4 3 2 1 2 9 5 5 4 8 14 14 11 7 6 6 7 6 5 4 3 3 3 5 7 6 5 6 5 7 7 7 7 6 4 4 1 1 2 2 0 2
9 9 9 8 9 9 8 8 8 9 9 8 8 8 7 7 4 1 0 1 4 7 6 6 6 5 5 6 9 8 6 7 10 10 10 10 8 4 6 6 5 3 6 4 2 3 3 6 4 7 7 7 11 13 12 8 7 7 7 7 6 6 6 5 5 4 1 2 1 0 0 2 2 3 4 4 4 3 1 2 2 2 1 2 2
6 6 7 7 7 7 6 6 7 6 6 7 8 8 7 8 8 7 6 6 7 4 4 6 7 7 7 7 6 6 7 6 9 13 11 12 11 6 5 5 5 5 6 7 5 3 4 5 6 9 10 11 10 10 9 9 6 5 6 6 6 5 4 5 4 4 3 2 1 2 3 2 2 1 2 1 1 0 0 1 3 5 3 1 1
5 5 5 6 7 7 7 7 8 7 6 6 4 5 6 6 6 6 7 8 6 7 6 3 4 7 8 8 8 6 6 7 8 13 13 12 12 9 5 5 5 7 7 6 6 6 5 5 5 8 11 12 12 12 11 11 9 6 5 5 3 5 8 5 4 6 4 3 2 2 2 1 1 3 2 1 3 3 3 1 2 2 2 1 2
5 5 6 6 6 6 7 8 7 6 7 8 9 8 8 7 6 7 7 6 7 7 6 8 7 5 5 5 5 7 8 12 7 11 13 13 13 12 6 5 3 7 6 6 5 5 6 6 6 7 12 13 13 13 13 13 13 9 7 9 11 13 7 5 5 4 3 1 1 2 3 2 3 4 3 2 3 3 3 2 3 4 1 0 1
7 7 7 7 7 7 8 8 7 6 7 8 8 7 7 7 8 8 7 7 7 8 8 7 6 7 6 5 6 7 7 8 12 10 13 14 14 13 10 6 5 5 8 7 6 6 5 3 3 8 13 13 13 14 14 14 11 8 11 11 10 10 7 4 3 2 2 1 2 0 1 2 4 5 4 3 2 3 2 0 2 4 4 2 1
7 8 8 8 9 9 9 9 9 8 8 8 8 7 8 7 7 6 7 6 7 7 7 8 7 7 8 8 6 3 3 5 4 7 10 16 14 13 12 11 6 4 5 8 7 9 9 8 5 9 11 13 13 13 13 11 9 11 10 10 9 6 3 3 2 3 2 2 1 1 5 4 4 4 3 2 2 1 3 3 3 3 2 1 2
7 7 7 7 8 8 8 8 8 8 8 8 8 7 7 7 7 7 7 7 7 7 7 6 7 8 8 8 4 0 3 4 3 6 9 7 5 2 6 9 12 8 6 5 8 8 10 15 15 13 13 13 14 13 10 11 12 10 10 8 6 4 4 5 4 6 6 4 4 6 4 3 3 1 2 4 3 3 2 3 4 5 4 3 2
7 7 7 7 7 7 7 7 7 7 7 8 8 7 8 8 7 7 7 7 7 6 7 7 7 8 8 9 3 2 5 4 5 4 4 6 4 4 1 6 11 12 9 11 13 15 17 17 16 15 14 13 11 8 7 6 9 9 8 6 5 6 6 6 5 6 5 5 6 5 3 1 2 2 3 4 7 6 4 4 6 6 5 5 6
6 5 6 6 6 6 6 6 6 7 6 7 7 7 7 7 7 7 7 8 9 9 9 9 8 7 7 7 7 6 2 5 6 3 4 3 4 5 5 5 2 5 6 7 10 10 10 10 9 9 8 10 10 9 9 7 6 6 5 5 6 7 6 5 5 6 5 6 4 3 1 2 2 6 7 7 6 5 3 3 5 3 4 3 4
7 7 7 6 5 5 5 8 8 6 6 6 6 7 8 8 7 7 6 7 8 8 9 9 9 8 8 6 6 3 4 7 3 7 8 7 5 5 5 3 2 2 5 6 8 9 9 8 9 7 8 7 6 5 4 5 5 5 5 4 4 4 6 8 8 6 4 4 3 2 3 4 5 3 5 6 3 3 2 3 2 3 2 3 4
7 7 7 5 5 5 6 6 5 6 6 6 5 4 5 6 7 7 4 4 5 5 7 7 7 8 8 8 7 7 4 3 7 7 2 9 10 9 4 5 4 3 7 13 10 8 6 6 7 7 7 7 6 6 5 5 4 4 4 4 4 3 5 7 7 5 4 6 5 4 3 3 2 2 3 4 3 2 1 3 1 3 3 3 3
5 5 5 5 5 6 6 6 5 6 6 6 7 7 6 7 6 5 7 11 13 6 2 4 7 8 8 8 7 7 8 7 7 7 10 11 14 15 11 10 8 8 7 7 9 10 6 5 4 6 8 6 7 6 6 5 5 4 5 6 6 7 7 7 6 4 4 4 3 4 2 2 2 3 5 3 2 2 2 3 2 1 3 3 4
4 5 5 5 5 5 5 5 6 6 6 6 7 7 8 7 8 10 9 10 10 14 15 13 10 8 6 7 10 12 13 7 10 12 11 13 15 15 14 16 16 16 14 8 4 3 6 7 4 0 2 5 7 6 6 6 6 7 7 6 6 7 7 7 5 5 4 4 3 3 1 2 2 3 3 2 1 0 1 1 2 3 3 3 4
4 5 4 5 5 4 4 5 6 6 6 6 6 7 7 8 9 8 10 11 11 12 13 12 11 11 12 9 7 8 10 8 11 12 13 14 14 14 15 19 18 19 19 16 8 5 6 7 6 6 5 5 5 6 7 6 6 6 6 7 5 5 7 5 5 5 4 5 3 1 1 2 4 3 3 2 2 1 1 1 1 1 1 2 4
3 4 3 4 4 5 5 5 5 6 6 7 7 7 7 7 8 10 10 9 10 10 11 10 12 12 10 11 10 9 10 10 11 12 12 14 14 15 16 19 20 18 13 7 7 8 6 6 8 8 7 6 6 7 6 7 6 6 6 6 6 3 6 4 3 5 4 3 1 1 1 2 3 3 4 2 1 0 0 0 0 1 2 2 3
3 1 2 2 4 4 5 5 5 6 6 7 7 7 6 6 8 8 9 9 10 8 6 7 8 9 12 10 9 11 12 11 11 13 13 13 14 15 16 13 18 16 13 9 8 6 5 5 7 9 9 8 6 6 6 6 6 6 4 4 5 4 4 4 7 6 4 3 2 1 1 1 3 2 1 0 0 0 0 0 1 2 3 3 4
1 2 2 3 3 4 5 5 5 6 6 6 7 7 7 7 7 7 8 9 8 9 9 7 7 11 12 11 10 10 10 14 11 12 15 14 15 15 14 11 8 5 5 6 8 10 9 8 8 8 7 6 6 7 8 8 7 7 7 6 6 6 6 6 6 5 4 2 2 2 1 1 4 2 1 1 1 3 3 3 3 2 2 4 4
2 2 3 4 4 4 4 4 5 5 5 6 6 6 6 6 6 7 8 8 7 7 7 6 7 10 15 12 8 8 10 10 12 10 10 12 15 18 10 8 8 9 8 9 9 7 5 1 2 3 6 7 7 7 8 7 7 8 8 8 7 7 7 6 5 5 3 3 3 3 5 7 6 6 5 6 5 5 3 2 2 3 3 4 4
1 2 2 2 3 4 4 4 4 5 5 6 5 5 5 5 5 6 6 6 7 6 7 7 7 9 9 5 4 7 8 8 6 4 8 11 17 15 10 12 12 10 9 6 5 7 8 7 5 4 5 7 8 8 7 7 7 7 6 7 7 7 7 6 5 5 6 5 5 6 5 4 5 5 6 5 3 2 2 2 3 4 4 5 5
1 1 1 2 3 4 3 5 6 7 7 6 5 5 5 5 6 6 6 6 7 7 7 7 6 7 8 8 3 3 4 6 8 7 7 7 4 1 2 5 4 7 6 4 7 7 7 7 6 8 6 8 8 7 8 7 8 8 8 7 7 7 7 7 5 6 6 6 6 5 4 4 4 4 4 5 2 2 3 4 4 4 5 6 4
0 3 1 3 4 4 5 5 6 6 7 6 5 5 5 6 6 5 5 5 5 6 6 6 7 7 8 3 2 3 5 5 5 2 2 4 2 2 6 6 6 6 5 4 6 3 3 7 9 8 8 8 7 7 7 7 7 8 7 7 6 5 7 7 7 7 7 6 5 3 4 3 3 3 4 3 3 3 3 3 4 3 4 4 5
0 0 2 3 3 4 5 5 6 6 6 5 5 5 6 6 5 4 4 5 6 6 6 6 6 6 2 3 0 2 4 4 2 2 3 4 5 4 5 6 7 7 6 6 2 3 6 7 7 8 8 7 8 7 7 7 7 7 8 8 8 7 6 6 7 7 6 5 4 4 4 4 4 2 1 1 2 2 2 3 3 4 4 4 5
0 0 2 4 5 5 5 6 6 6 5 4 5 5 5 6 5 4 5 4 5 5 5 4 4 4 4 2 3 6 5 3 4 5 4 5 5 5 6 6 6 7 5 5 6 7 4 6 7 8 7 7 7 7 7 8 8 9 9 8 8 7 6 6 6 5 5 5 4 4 3 4 3 3 2 1 2 2 3 3 4 4 5 5 5
1 3 5 4 4 5 5 7 6 7 5 4 6 6 5 5 4 3 4 3 4 5 4 3 4 4 3 3 3 5 6 4 3 6 6 6 6 5 5 7 6 7 7 7 6 7 8 8 7 7 7 8 8 8 8 8 8 9 8 8 7 6 6 6 5 5 5 4 4 3 3 3 2 1 0 1 2 4 4 4 5 5 5 5 6
3 4 4 5 5 5 5 6 6 5 5 6 6 5 6 6 6 5 4 3 4 3 4 4 5 5 6 7 10 8 5 4 4 6 5 6 7 8 8 6 6 8 8 9 9 8 8 9 9 8 8 9 8 8 8 8 8 8 8 7 7 7 6 5 5 5 4 4 4 3 4 4 5 3 3 3 3 4 4 4 5 5 5 5 5
4 5 4 4 4 5 5 5 6 6 5 5 6 7 7 7 7 6 5 5 5 5 4 6 5 6 5 7 8 7 6 6 7 7 8 8 9 8 8 8 9 10 9 8 8 8 9 10 10 8 9 9 8 8 8 7 7 8 7 7 7 6 5 4 4 4 3 3 2 3 4 4 4 3 4 4 4 5 5 6 5 5 5 5 5
4 4 4 3 3 4 5 5 5 6 6 7 6 6 7 7 7 6 6 6 6 5 6 6 6 6 7 7 7 7 7 7 7 8 8 9 9 8 8 8 9 9 9 7 7 8 8 9 9 9 9 8 8 8 8 8 8 7 6 7 7 6 5 5 3 1 2 3 3 3 3 4 4 4 4 5 5 5 5 5 5 5 5 5 5
4 5 4 3 3 4 4 5 4 5 5 5 4 5 6 6 6 6 6 6 6 6 5 5 5 6 6 7 7 7 7 8 8 8 9 8 9 9 8 9 10 9 9 8 7 8 7 7 8 8 8 8 8 8 8 8 8 8 7 6 5 4 3 3 3 3 3 3 4 3 3 3 4 4 5 5 6 6 5 6 5 5 4 5 5
3 5 5 3 3 3 5 4 4 5 5 5 5 5 4 5 5 6 6 7 7 7 7 6 6 6 6 6 7 7 8 8 8 9 9 8 8 9 9 9 10 9 9 8 7 7 7 8 8 9 9 9 9 9 8 7 7 6 6 5 5 4 3 3 2 2 2 2 3 3 3 2 3 4 6 6 6 6 6 6 5 5 5 5 5
5 5 4 4 3 5 4 4 5 5 4 5 5 5 5 5 5 6 6 6 7 7 7 7 7 7 7 7 7 7 7 8 8 8 8 7 7 8 9 9 9 8 8 8 7 6 7 7 8 9 9 9 9 8 7 6 6 6 5 5 5 4 2 2 1 2 2 2 3 2 2 2 3 4 5 5 6 6 6 6 5 5 5 5 4
5 6 6 4 4 5 4 5 4 4 4 5 5 6 5 6 5 5 5 6 6 6 6 6 6 6 6 7 7 7 7 8 8 7 7 7 7 7 8 9 8 8 7 6 6 7 8 8 8 8 8 7 7 7 7 6 6 5 5 5 4 4 2 2 2 2 2 2 2 3 2 2 3 4 5 5 6 6 6 5 4 4 5 5 4
6 6 6 6 5 6 5 3 3 4 4 5 5 5 5 5 6 5 5 6 6 7 7 7 7 6 6 7 7 7 7 7 6 6 7 6 6 6 7 7 7 7 6 6 7 7 7 7 7 7 7 7 7 7 7 7 5 5 4 3 4 2 2 2 2 3 2 2 2 2 2 3 3 4 5 5 5 6 5 5 6 5 5 5 4
6 6 6 6 6 4 4 5 4 4 5 3 4 4 5 5 5 5 5 6 6 6 6 7 7 7 7 6 6 6 7 7 6 6 6 6 5 6 6 6 6 6 6 6 7 7 7 7 7 7 7 7 7 7 6 6 5 4 4 3 2 2 2 2 1 2 3 2 2 2 2 3 4 5 5 5 5 4 5 6 6 5 5 5 5
Wind_Direction
115 113 99 116 119 118 131 135 123 128 121 117 118 120 123 126 131 136 127 133 137 134 139 141 143 141 138 140 145 139 142 146 143 135 136 144 150 147 151 136 129 131 114 93 88 87 82 71 51 31 40 46 30 29 38 51 68 68 72 87 95 109 111 113 114 121 27 132 129 145 130 133 151 180 169 179 172 184 165 155 161 176 169 181 195
121 112 103 129 134 128 131 135 130 121 117 117 118 121 124 127 133 130 133 149 146 147 149 151 147 148 153 160 156 157 145 143 131 124 128 127 128 134 145 121 110 116 108 109 111 116 102 83 43 20 38 59 48 51 58 79 93 84 82 92 98 97 122 107 128 124 158 32 83 77 125 163 154 225 178 187 228 194 166 159 187 179 169 180 199
105 91 90 125 142 145 128 126 121 116 109 109 109 117 123 126 135 137 139 154 156 153 157 157 158 160 158 161 158 160 168 143 132 124 135 138 112 120 135 131 136 140 135 141 135 128 114 118 112 59 38 52 46 51 58 57 79 99 101 104 106 114 140 132 123 132 153 196 190 124 153 147 161 206 215 198 184 172 189 148 190 197 184 178 195
56 44 13 8 99 119 121 102 97 97 98 99 102 111 118 131 140 144 149 156 165 165 159 161 162 162 158 163 162 169 168 149 147 148 161 156 133 126 125 135 152 143 148 163 143 127 133 113 122 108 75 66 45 58 62 62 63 82 84 83 107 106 127 141 151 138 162 129 254 167 205 142 224 190 193 130 134 114 99 104 115 166 189 190 190
81 53 65 43 23 10 11 25 38 87 116 127 141 142 144 146 147 159 143 157 176 146 171 162 164 165 162 166 165 159 168 159 157 160 163 153 148 141 145 154 158 138 139 147 157 151 145 151 172 138 106 75 57 76 83 75 64 77 78 63 74 88 78 73 63 108 125 144 192 259 197 164 178 163 182 169 45 65 68 73 87 105 130 189 194
63 76 42 56 68 70 66 68 37 357 336 150 152 148 146 140 147 165 144 175 192 150 168 171 170 175 173 167 166 164 170 171 161 164 161 158 150 161 160 154 147 133 141 130 131 131 117 153 172 132 103 110 116 105 95 97 82 73 81 76 82 88 101 103 83 81 131 154 167 131 345 139 61 175 195 106 104 67 48 41 36 32 39 20 352
34 32 78 95 85 100 113 123 116 123 295 331 321 136 123 161 171 190 177 173 182 159 175 172 183 169 180 158 168 169 172 174 171 164 162 153 150 153 145 132 78 61 46 49 60 99 97 107 121 124 129 132 130 126 115 98 91 82 80 88 75 79 61 57 73 70 105 136 145 179 145 234 125 144 51 103 104 127 123 58 19 329 16 35 360
88 72 134 114 97 93 105 137 147 188 250 50 358 348 76 37 333 249 328 189 172 150 170 181 192 167 186 179 176 171 150 117 106 108 128 139 128 125 103 104 120 91 74 70 73 86 106 106 93 85 127 146 132 139 130 127 114 98 98 82 62 61 59 45 44 61 66 65 142 187 194 146 49 47 55 63 60 27 34 127 94 8 1 341 7
70 86 15 96 112 129 152 162 164 186 154 257 99 306 35 44 67 54 62 51 60 59 65 70 49 341 73 103 121 109 117 132 131 134 118 91 109 115 134 149 133 127 145 150 155 106 78 104 112 112 83 135 136 126 132 144 136 131 148 122 119 123 110 61 71 81 70 60 30 4 76 57 58 94 46 50 99 135 291 78 78 5 9 25 330
76 74 30 47 73 86 63 38 92 144 212 320 319 330 326 70 89 82 78 78 75 81 77 70 75 78 102 94 91 117 130 141 128 114 111 117 99 121 137 160 147 164 181 183 188 179 167 163 152 103 110 128 129 122 114 106 111 130 158 144 141 114 104 93 83 103 95 81 60 61 78 65 48 76 97 75 91 58 54 41 43 329 30 12 328
117 128 120 50 73 108 129 206 176 177 123 93 326 320 260 193 130 115 114 116 117 109 95 91 96 106 123 144 149 146 158 148 142 126 114 113 119 133 141 160 169 176 189 195 200 195 204 181 155 141 126 127 129 126 119 116 113 107 94 88 96 134 126 106 112 106 103 103 103 86 102 96 54 85 116 105 41 91 119 109 86 52 62 35 323
125 100 91 77 329 49 60 9 295 208 170 60 36 301 261 154 149 149 131 117 125 87 88 122 116 116 121 141 179 188 182 178 158 140 123 130 143 146 154 160 175 188 198 202 195 193 209 184 167 183 154 154 144 124 115 118 118 114 109 101 87 69 92 139 142 94 105 105 84 108 128 132 145 104 94 64 72 51 41 73 69 73 43 19 307
99 127 153 171 191 170 148 181 210 213 125 189 203 203 208 130 162 76 159 176 120 131 143 126 135 144 143 164 219 243 237 222 176 155 143 148 167 155 163 169 175 191 196 206 198 190 193 195 192 197 188 167 153 145 134 119 114 118 113 100 88 96 91 85 93 127 141 110 120 83 114 146 112 61 293 140 100 98 66 61 56 62 103 327 264
55 60 75 81 89 150 170 158 177 172 180 185 181 184 148 172 187 152 114 57 69 17 152 164 181 171 184 180 203 224 230 242 202 138 137 149 173 184 163 172 181 187 199 204 205 192 191 184 190 195 190 172 160 155 143 137 138 131 123 115 117 91 75 80 84 87 94 130 133 128 318 122 128 149 36 123 111 124 106 97 165 59 306 260 248
40 39 40 38 46 53 52 33 8 359 113 146 144 147 175 146 139 132 131 155 229 258 261 249 213 210 211 208 201 222 232 230 181 160 156 162 178 185 182 176 182 190 199 203 202 203 197 189 190 197 187 178 172 164 149 150 144 139 129 125 114 97 86 74 70 92 99 103 116 123 128 116 128 144 143 116 129 163 168 184 197 200 222 275 319
33 28 25 24 26 23 19 24 33 43 37 40 33 108 178 172 160 168 175 218 225 241 256 234 250 240 239 285 278 244 249 217 172 165 163 162 167 180 182 181 186 190 195 194 188 198 205 194 201 210 185 168 191 169 154 147 144 143 137 126 105 97 81 57 39 95 110 118 126 135 143 149 150 156 158 147 150 161 121 33 51 58 51 23 323
28 24 23 17 15 13 11 12 28 32 26 23 30 44 26 354 308 232 183 212 241 261 259 253 226 217 231 224 227 234 241 230 194 174 165 162 160 191 197 197 191 191 197 156 147 165 196 199 197 210 167 186 165 157 151 145 146 145 136 127 126 119 127 105 64 83 100 111 127 138 146 141 145 155 168 179 166 147 85 52 345 65 43 6 320
18 22 21 14 8 7 10 13 13 11 18 18 10 3 15 73 68 352 292 275 249 234 237 250 253 229 224 232 219 214 222 217 195 183 177 179 181 183 194 194 203 188 137 127 123 111 14 222 200 176 174 168 157 157 154 145 144 150 142 136 138 138 147 143 115 82 95 99 103 127 148 162 166 180 187 192 158 140 122 195 232 99 40 78 294
14 11 8 6 6 7 11 16 13 5 5 359 359 355 354 342 338 8 293 215 246 256 236 227 248 242 218 208 213 216 220 219 197 192 183 185 197 209 195 189 192 154 135 121 99 87 64 38 91 147 151 142 154 150 153 149 149 156 155 148 154 167 180 161 143 122 119 96 58 73 256 224 200 200 225 198 146 160 118 157 141 91 55 4 355
5 11 9 10 10 9 9 8 3 2 354 348 344 340 336 340 339 337 333 339 329 310 246 239 235 235 236 243 235 206 190 188 193 193 189 192 201 202 199 186 186 159 154 150 124 92 84 91 78 100 114 118 115 108 106 123 146 159 150 162 162 188 159 151 160 141 147 159 219 213 236 274 239 282 287 164 113 126 146 131 121 115 109 109 9
9 11 9 9 8 5 2 2 357 352 349 342 332 331 331 325 322 325 322 325 330 323 319 287 244 242 234 220 219 214 193 185 187 187 192 194 195 195 192 203 170 157 163 157 150 142 130 120 119 126 121 115 112 106 101 100 107 112 126 140 166 153 136 128 156 153 154 172 182 205 268 323 278 253 269 87 151 168 184 180 122 135 129 206 293
3 3 6 3 360 359 357 354 355 355 352 353 352 345 337 332 320 316 313 313 313 308 306 310 308 283 264 253 232 216 206 194 177 188 195 195 189 192 190 206 165 147 145 154 152 154 152 148 143 143 124 118 114 111 107 102 100 95 102 111 110 117 131 148 148 137 129 109 31 10 346 341 354 5 16 51 108 134 151 181 209 212 180 111 49
7 7 4 357 355 354 351 352 353 354 349 347 348 344 341 339 333 327 314 303 298 300 303 301 300 296 291 266 245 236 219 203 185 186 197 191 189 187 196 200 127 172 154 166 164 131 98 91 104 136 128 124 120 117 111 104 94 114 123 101 99 109 112 101 113 107 112 122 106 104 317 13 43 73 89 101 122 152 170 149 33 44 32 39 116
13 13 9 5 5 2 0 357 353 346 344 347 346 345 340 337 334 330 325 316 308 297 292 298 298 300 293 290 268 261 343 333 251 204 193 192 187 186 188 212 210 189 185 164 157 155 147 137 147 143 128 126 120 115 115 110 117 112 98 100 93 88 94 84 85 114 97 76 59 22 24 44 78 63 70 118 121 78 75 91 123 137 132 72 34
17 11 7 4 360 357 354 350 345 347 344 340 336 333 328 332 331 330 334 329 324 315 301 298 299 295 294 290 315 328 131 125 88 45 34 349 321 202 191 203 226 223 182 170 151 159 152 146 150 147 138 124 115 106 101 111 117 111 110 108 104 78 71 75 84 82 74 72 82 83 75 82 115 108 99 106 103 90 77 37 38 32 21 44 20
13 6 3 357 353 350 346 340 340 339 342 347 345 339 341 340 339 335 337 333 333 335 333 345 346 342 333 316 310 58 57 55 66 80 104 119 93 40 7 224 227 225 198 164 158 145 149 150 152 143 127 124 120 124 129 130 117 114 112 99 87 96 103 99 82 85 92 85 88 94 95 41 24 83 83 69 63 44 51 39 35 13 16 13 7
5 0 357 350 347 344 343 340 341 345 350 350 350 351 350 349 348 350 352 350 348 346 344 340 334 336 331 336 333 322 338 114 127 112 112 94 105 96 52 18 25 115 101 107 111 124 132 134 138 136 126 123 113 118 120 130 121 120 114 104 102 113 114 106 114 107 93 97 93 85 68 36 45 44 36 56 59 44 63 73 55 2 13 0 14
358 350 346 342 333 342 354 353 351 343 345 350 351 348 345 341 340 341 348 347 343 335 334 330 326 320 313 311 320 319 297 314 286 154 146 131 99 65 80 60 35 69 102 110 122 130 134 120 111 109 109 98 99 94 105 112 115 107 91 92 105 109 115 102 79 82 92 111 115 89 28 26 45 47 59 67 70 47 40 72 82 6 353 9 10
348 343 336 336 336 358 354 345 335 336 338 341 334 328 326 326 322 322 323 330 320 327 323 320 314 309 301 294 292 296 281 244 256 288 219 143 133 125 124 121 120 147 158 140 119 108 113 122 123 121 119 121 116 121 120 109 94 84 98 101 95 82 86 77 94 104 109 84 65 63 34 36 23 34 82 63 26 22 344 43 350 39 338 17 336
346 335 329 332 332 341 337 332 330 333 327 319 318 313 304 297 294 300 312 314 315 313 281 292 294 302 302 285 263 260 260 237 198 172 163 143 141 136 147 140 127 121 127 129 129 132 131 135 138 142 139 131 133 136 145 143 131 114 110 111 113 99 88 103 114 118 97 101 114 73 54 82 19 43 69 75 3 346 338 55 322 2 22 342 337
320 309 313 313 322 328 334 337 334 325 320 317 314 311 310 309 300 301 295 297 305 317 323 319 317 303 283 291 295 277 257 218 174 176 171 164 155 147 134 128 131 131 124 103 31 89 118 114 99 340 114 128 135 151 157 152 156 142 132 124 121 112 111 119 136 125 113 100 75 85 102 73 88 113 111 142 142 297 338 336 72 44 28 353 335
296 291 296 308 327 335 329 321 319 320 313 309 305 306 308 309 312 305 307 307 308 310 314 319 325 326 315 297 286 299 295 247 190 178 176 175 172 154 141 140 147 150 152 140 139 180 161 151 152 169 180 150 168 164 161 155 161 152 131 117 129 134 125 136 166 132 115 88 91 63 30 110 148 170 171 181 171 173 166 46 76 81 358 339 313
258 276 306 322 327 325 324 317 311 307 305 304 301 296 296 300 302 308 312 306 302 305 309 316 321 323 329 325 308 283 277 279 245 200 180 175 164 160 154 151 155 155 142 129 143 156 172 173 174 175 169 184 174 172 167 158 156 156 151 138 149 160 144 145 108 82 96 136 133 22 27 188 198 197 203 189 160 349 126 236 297 356 359 334 302
261 286 326 323 321 321 316 310 310 310 309 304 300 302 305 305 303 304 307 310 313 301 278 304 315 329 330 331 325 319 314 300 267 236 205 186 167 157 149 153 157 163 149 138 141 163 180 197 191 176 185 177 169 158 150 151 152 148 134 140 144 134 111 96 96 104 103 105 98 73 80 212 237 242 285 14 30 135 168 345 46 6 324 287 292
28 28 311 335 353 341 329 323 323 324 328 328 327 321 314 312 310 306 301 302 302 306 313 321 331 333 320 318 323 324 316 309 287 248 227 200 179 155 126 120 135 173 161 152 161 175 170 182 187 196 187 160 157 147 143 142 138 133 125 117 119 113 104 102 110 120 106 82 40 29 355 21 31 41 114 73 43 28 16 34 30 1 320 314 307
36 3 351 31 2 339 322 322 316 310 309 311 311 307 305 311 313 308 303 295 293 303 312 318 317 316 311 300 305 325 327 313 298 266 238 201 163 142 148 166 162 176 180 180 171 157 138 83 338 243 164 149 142 137 138 133 130 126 125 125 127 123 119 118 119 105 101 84 56 44 52 44 35 39 48 55 54 61 54 41 21 9 330 306 299
74 37 63 26 334 307 295 288 285 286 286 289 290 295 296 296 293 299 308 307 310 307 301 312 317 311 305 289 302 330 343 327 293 234 186 184 172 171 177 174 178 174 180 173 172 158 139 139 180 212 156 131 130 131 126 120 114 110 110 116 126 124 136 139 140 116 84 62 60 71 72 68 58 58 76 76 49 43 23 1 5 339 315 309 310
75 109 112 1 321 297 292 291 285 287 288 286 286 285 290 293 296 301 298 298 294 296 296 294 293 285 297 293 344 1 342 15 59 67 90 115 170 352 92 124 130 144 146 141 172 168 149 141 155 178 148 127 128 126 119 120 120 116 117 118 127 146 146 130 107 86 84 78 82 75 81 78 79 80 78 85 72 7 356 347 334 321 315 313 314
183 152 145 338 301 288 294 295 297 301 299 289 279 286 289 288 290 288 286 286 289 290 288 285 286 281 273 258 7 360 27 16 21 28 109 133 123 95 117 113 114 119 124 131 96 124 158 152 166 148 131 131 122 115 115 115 114 119 120 113 92 66 74 84 89 86 87 94 87 89 83 77 74 93 100 69 356 327 323 307 309 302 303 306 305
167 351 321 306 304 308 306 301 304 305 297 297 305 298 284 284 280 281 292 295 294 290 291 297 299 303 343 38 20 24 61 55 68 91 88 68 76 62 77 104 103 88 87 84 284 227 149 156 138 120 121 115 111 111 114 114 101 87 76 82 91 88 83 87 86 85 95 99 93 71 56 35 14 27 76 60 325 299 299 307 308 307 306 308 305
156 244 319 351 345 330 326 325 319 314 302 301 289 287 288 290 290 288 291 295 303 325 338 341 339 326 336 2 9 19 76 71 72 62 69 95 101 103 99 97 106 119 138 131 110 83 114 109 101 104 105 104 100 96 92 91 92 89 89 88 88 91 84 72 78 86 90 81 73 59 29 29 33 77 71 324 306 345 334 326 320 323 317 312 303
38 29 28 17 350 349 334 328 325 327 327 324 330 327 315 309 301 289 298 330 2 355 347 333 323 329 332 13 14 66 88 57 65 87 80 73 73 70 79 101 104 85 75 76 88 101 89 79 80 84 87 83 86 88 89 87 90 93 94 93 94 91 83 76 71 71 71 69 53 36 27 21 34 98 255 2 5 333 338 330 318 308 304 298 294
52 47 39 22 1 347 329 324 333 349 345 7 7 357 360 8 14 19 24 28 11 357 345 356 6 11 38 65 93 95 82 72 67 74 70 64 60 61 57 53 63 73 70 77 82 82 81 81 75 70 77 80 82 87 91 96 97 96 95 95 92 86 83 73 63 56 54 52 40 31 34 28 25 350 323 355 337 334 319 314 300 297 292 289 282
71 61 39 31 1 339 338 350 356 7 2 5 12 13 10 11 14 19 24 21 8 2 354 356 7 28 43 44 57 66 61 59 60 59 63 62 62 58 61 65 65 68 71 67 65 76 85 87 85 79 75 76 77 80 82 84 90 95 100 97 90 85 81 77 68 53 58 58 50 47 34 21 16 5 349 339 337 326 316 304 301 298 297 295 296
95 85 73 28 0 358 349 357 10 9 13 36 29 14 16 17 20 19 21 20 13 7 360 9 35 50 53 52 57 64 66 67 65 64 64 68 69 66 66 68 72 72 70 62 63 73 79 83 88 88 85 78 75 76 76 72 70 72 77 92 98 89 81 66 34 18 73 81 63 53 34 28 6 348 334 324 320 306 300 299 296 300 299 293 303
120 105 90 71 28 5 2 4 16 20 30 41 36 26 21 19 22 25 19 17 15 19 26 41 55 53 56 64 63 62 66 72 70 68 68 66 69 71 72 75 75 73 69 66 63 66 70 78 86 90 91 89 85 80 74 71 69 69 67 71 82 90 73 38 8 47 64 68 62 57 34 22 349 326 314 315 304 302 300 300 296 281 282 294 295
131 119 103 92 46 22 11 11 24 27 30 30 35 30 30 28 24 20 22 22 24 29 41 45 46 49 55 57 57 58 61 67 70 71 71 71 70 71 70 71 72 70 67 63 62 67 73 76 81 85 86 84 81 78 76 73 74 73 70 69 70 63 35 1 12 63 65 46 55 55 34 14 331 324 320 319 310 309 312 300 295 310 318 311 300
145 136 125 127 93 55 31 29 31 29 39 39 35 28 26 23 27 28 30 25 28 30 43 56 61 60 60 59 61 62 63 68 72 75 76 75 73 75 77 78 78 77 74 69 59 63 69 73 74 77 78 78 80 82 84 84 82 82 81 76 69 70 58 352 10 47 21 17 17 16 2 327 309 299 293 299 298 301 305 307 316 326 325 317 308
149 140 132 131 117 99 72 47 36 49 48 45 36 31 32 34 28 28 34 36 36 39 42 52 58 60 64 66 69 69 68 70 75 77 77 79 80 81 85 87 87 86 86 83 78 72 70 70 73 76 80 82 84 86 85 83 81 75 72 70 73 68 46 30 61 49 12 343 10 13 356 315 288 284 286 291 296 296 297 303 312 325 325 317 296
158 146 141 138 124 114 100 71 62 68 65 67 56 42 37 45 48 41 36 41 47 50 50 53 56 55 59 64 69 71 70 69 71 75 81 83 87 90 90 90 91 90 89 87 79 74 73 75 77 77 78 78 76 75 76 75 72 69 68 80 91 98 100 81 73 63 29 17 350 331 304 292 283 280 279 285 285 298 308 320 326 330 325 311 301
156 145 141 131 128 126 117 112 81 64 71 68 82 74 55 52 64 62 56 53 60 57 57 59 61 61 60 56 57 64 71 69 63 67 70 75 80 89 93 94 93 91 85 82 80 78 77 76 74 73 72 73 72 74 75 78 74 68 59 43 2 341 2 2 344 299 284 259 239 258 284 285 292 294 297 295 297 305 312 322 320 324 319 307 307